Time,TemperatureF,DewpointF,PressureIn,WindDirection,WindDirectionDegrees,WindSpeedMPH,WindSpeedGustMPH,Humidity,HourlyPrecipIn,Conditions,Clouds,dailyrainin,SolarRadiationWatts/m^2,SoftwareType,DateUTC
2013-10-07 00:04:00,72.0,72.0,29.54,SSE,165,6.0,16.0,100,0.00,,,0.00,0.000000,,2013-10-07 04:04:00,
2013-10-07 00:13:00,72.0,72.0,29.54,SSE,165,6.0,16.0,100,0.00,,,0.00,0.000000,,2013-10-07 04:13:00,
2013-10-07 00:44:00,71.0,71.0,29.53,North,0,6.0,12.0,100,0.00,,,0.00,0.000000,,2013-10-07 04:44:00,
2013-10-07 00:53:00,71.0,71.0,29.53,North,0,6.0,12.0,100,0.00,,,0.00,0.000000,,2013-10-07 04:53:00,
2013-10-07 01:03:00,71.0,71.0,29.53,North,0,6.0,12.0,100,0.00,,,0.00,0.000000,,2013-10-07 05:03:00,
2013-10-07 01:13:00,71.0,71.0,29.53,North,0,6.0,12.0,100,0.00,,,0.00,0.000000,,2013-10-07 05:13:00,
2013-10-07 01:43:00,71.0,71.0,29.52,South,184,5.0,13.0,100,0.00,,,0.00,0.000000,,2013-10-07 05:43:00,
2013-10-07 01:52:00,71.0,71.0,29.52,South,184,5.0,13.0,100,0.00,,,0.00,0.000000,,2013-10-07 05:52:00,
2013-10-07 02:03:00,71.0,71.0,29.52,South,184,5.0,13.0,100,0.00,,,0.00,0.000000,,2013-10-07 06:03:00,
2013-10-07 02:12:00,71.0,71.0,29.52,South,184,5.0,13.0,100,0.00,,,0.00,0.000000,,2013-10-07 06:12:00,
2013-10-07 02:42:00,71.0,71.0,29.50,South,174,5.0,14.0,100,0.00,,,0.00,0.000000,,2013-10-07 06:42:00,
2013-10-07 02:53:00,71.0,71.0,29.50,South,174,5.0,14.0,100,0.00,,,0.00,0.000000,,2013-10-07 06:53:00,
2013-10-07 03:02:00,71.0,71.0,29.50,South,174,5.0,14.0,100,0.00,,,0.00,0.000000,,2013-10-07 07:02:00,
2013-10-07 03:12:00,71.0,71.0,29.50,South,174,5.0,14.0,100,0.00,,,0.00,0.000000,,2013-10-07 07:12:00,
2013-10-07 03:42:00,72.0,72.0,29.48,South,170,6.0,16.0,100,0.00,,,0.00,0.000000,,2013-10-07 07:42:00,
2013-10-07 03:52:00,72.0,72.0,29.48,South,170,6.0,16.0,100,0.00,,,0.00,0.000000,,2013-10-07 07:52:00,
2013-10-07 04:03:00,72.0,72.0,29.48,South,170,6.0,16.0,100,0.00,,,0.00,0.000000,,2013-10-07 08:03:00,
2013-10-07 04:12:00,72.0,72.0,29.48,South,170,6.0,16.0,100,0.00,,,0.00,0.000000,,2013-10-07 08:12:00,
2013-10-07 04:42:00,72.0,72.0,29.46,South,175,6.0,15.0,100,0.00,,,0.00,0.000000,,2013-10-07 08:42:00,
2013-10-07 04:52:00,72.0,72.0,29.46,South,175,6.0,15.0,100,0.00,,,0.00,0.000000,,2013-10-07 08:52:00,
2013-10-07 05:02:00,72.0,72.0,29.46,South,175,6.0,15.0,100,0.00,,,0.00,0.000000,,2013-10-07 09:02:00,
2013-10-07 05:11:00,72.0,72.0,29.46,South,175,6.0,15.0,100,0.00,,,0.00,0.000000,,2013-10-07 09:11:00,
2013-10-07 05:43:00,72.0,72.0,29.46,South,177,6.0,16.0,100,0.00,,,0.00,0.000000,,2013-10-07 09:43:00,
2013-10-07 05:54:00,72.0,72.0,29.46,South,177,6.0,16.0,100,0.00,,,0.00,0.000000,,2013-10-07 09:54:00,
2013-10-07 06:03:00,72.0,72.0,29.46,South,177,6.0,16.0,100,0.00,,,0.00,0.000000,,2013-10-07 10:03:00,
2013-10-07 06:13:00,72.0,72.0,29.46,South,177,6.0,16.0,100,0.00,,,0.00,0.000000,,2013-10-07 10:13:00,
2013-10-07 06:43:00,72.0,72.0,29.45,South,186,5.0,15.0,100,0.00,,,0.00,0.000000,,2013-10-07 10:43:00,
2013-10-07 06:53:00,72.0,72.0,29.45,South,186,5.0,15.0,100,0.00,,,0.00,0.000000,,2013-10-07 10:53:00,
2013-10-07 07:03:00,72.0,72.0,29.45,South,186,5.0,15.0,100,0.00,,,0.00,0.000000,,2013-10-07 11:03:00,
2013-10-07 07:12:00,72.0,72.0,29.45,South,186,5.0,15.0,100,0.00,,,0.00,0.000000,,2013-10-07 11:12:00,
2013-10-07 07:42:00,72.0,72.0,29.44,South,178,7.0,16.0,100,0.00,,,0.00,0.000000,,2013-10-07 11:42:00,
2013-10-07 07:52:00,72.0,72.0,29.44,South,178,7.0,16.0,100,0.00,,,0.00,0.000000,,2013-10-07 11:52:00,
2013-10-07 08:02:00,72.0,72.0,29.44,South,178,7.0,16.0,100,0.00,,,0.00,0.000000,,2013-10-07 12:02:00,
2013-10-07 08:12:00,72.0,72.0,29.44,South,178,7.0,16.0,100,0.00,,,0.00,0.000000,,2013-10-07 12:12:00,
2013-10-07 08:43:00,70.0,70.0,29.46,NNE,17,6.0,24.0,100,0.00,,,0.00,8.000000,,2013-10-07 12:43:00,
2013-10-07 08:52:00,70.0,70.0,29.46,NNE,17,6.0,24.0,100,0.00,,,0.00,8.000000,,2013-10-07 12:52:00,
2013-10-07 09:02:00,70.0,70.0,29.46,NNE,17,6.0,24.0,100,0.00,,,0.00,8.000000,,2013-10-07 13:02:00,
2013-10-07 09:11:00,70.0,70.0,29.46,NNE,17,6.0,24.0,100,0.00,,,0.00,8.000000,,2013-10-07 13:11:00,
2013-10-07 09:42:00,70.0,70.0,29.47,South,187,7.0,18.0,100,0.14,,,0.14,16.000000,,2013-10-07 13:42:00,
2013-10-07 09:52:00,70.0,70.0,29.47,South,187,7.0,18.0,100,0.14,,,0.14,16.000000,,2013-10-07 13:52:00,
2013-10-07 10:02:00,70.0,70.0,29.47,South,187,7.0,18.0,100,0.14,,,0.14,16.000000,,2013-10-07 14:02:00,
2013-10-07 10:11:00,70.0,70.0,29.47,South,187,7.0,18.0,100,0.14,,,0.14,16.000000,,2013-10-07 14:11:00,
2013-10-07 10:43:00,72.0,72.0,29.48,SSW,209,6.0,16.0,100,0.12,,,0.26,28.000000,,2013-10-07 14:43:00,
2013-10-07 10:52:00,72.0,72.0,29.48,SSW,209,6.0,16.0,100,0.12,,,0.26,28.000000,,2013-10-07 14:52:00,
2013-10-07 11:01:00,72.0,72.0,29.48,SSW,209,6.0,16.0,100,0.12,,,0.26,28.000000,,2013-10-07 15:01:00,
2013-10-07 11:11:00,72.0,72.0,29.48,SSW,209,6.0,16.0,100,0.12,,,0.26,28.000000,,2013-10-07 15:11:00,
2013-10-07 11:54:00,71.0,71.0,29.48,SSW,195,8.0,21.0,100,0.64,,,0.90,13.000000,,2013-10-07 15:54:00,
2013-10-07 12:03:00,71.0,71.0,29.48,SSW,195,8.0,21.0,100,0.64,,,0.90,13.000000,,2013-10-07 16:03:00,
2013-10-07 12:13:00,71.0,71.0,29.48,SSW,195,8.0,21.0,100,0.64,,,0.90,13.000000,,2013-10-07 16:13:00,
2013-10-07 12:43:00,69.0,69.0,29.47,SSW,204,6.0,21.0,100,0.50,,,1.40,65.000000,,2013-10-07 16:43:00,
2013-10-07 12:53:00,69.0,69.0,29.47,SSW,204,6.0,21.0,100,0.50,,,1.40,65.000000,,2013-10-07 16:53:00,
2013-10-07 13:03:00,69.0,69.0,29.47,SSW,204,6.0,21.0,100,0.50,,,1.40,65.000000,,2013-10-07 17:03:00,
2013-10-07 13:12:00,69.0,69.0,29.47,SSW,204,6.0,21.0,100,0.50,,,1.40,65.000000,,2013-10-07 17:12:00,
2013-10-07 13:42:00,68.0,68.0,29.46,SW,223,4.0,13.0,100,0.44,,,1.84,75.000000,,2013-10-07 17:42:00,
2013-10-07 13:53:00,68.0,68.0,29.46,SW,223,4.0,13.0,100,0.44,,,1.84,75.000000,,2013-10-07 17:53:00,
2013-10-07 14:02:00,68.0,68.0,29.46,SW,223,4.0,13.0,100,0.44,,,1.84,75.000000,,2013-10-07 18:02:00,
2013-10-07 14:12:00,68.0,68.0,29.46,SW,223,4.0,13.0,100,0.44,,,1.84,75.000000,,2013-10-07 18:12:00,
2013-10-07 14:42:00,69.0,69.0,29.46,SSW,213,4.0,9.0,100,0.26,,,2.10,48.000000,,2013-10-07 18:42:00,
2013-10-07 14:52:00,69.0,69.0,29.46,SSW,213,4.0,9.0,100,0.26,,,2.10,48.000000,,2013-10-07 18:52:00,
2013-10-07 15:02:00,69.0,69.0,29.46,SSW,213,4.0,9.0,100,0.26,,,2.10,48.000000,,2013-10-07 19:02:00,
2013-10-07 15:11:00,69.0,69.0,29.46,SSW,213,4.0,9.0,100,0.26,,,2.10,48.000000,,2013-10-07 19:11:00,
2013-10-07 15:42:00,68.0,68.0,29.47,South,184,3.0,8.0,100,0.05,,,2.15,55.000000,,2013-10-07 19:42:00,
2013-10-07 15:53:00,68.0,68.0,29.47,South,184,3.0,8.0,100,0.05,,,2.15,55.000000,,2013-10-07 19:53:00,
2013-10-07 16:02:00,68.0,68.0,29.47,South,184,3.0,8.0,100,0.05,,,2.15,55.000000,,2013-10-07 20:02:00,
2013-10-07 16:12:00,68.0,68.0,29.47,South,184,3.0,8.0,100,0.05,,,2.15,55.000000,,2013-10-07 20:12:00,
2013-10-07 16:43:00,70.0,70.0,29.45,WSW,255,2.0,7.0,100,0.01,,,2.16,150.000000,,2013-10-07 20:43:00,
2013-10-07 16:52:00,70.0,70.0,29.45,WSW,255,2.0,7.0,100,0.01,,,2.16,150.000000,,2013-10-07 20:52:00,
2013-10-07 17:02:00,70.0,70.0,29.45,WSW,255,2.0,7.0,100,0.01,,,2.16,150.000000,,2013-10-07 21:02:00,
2013-10-07 17:12:00,70.0,70.0,29.45,WSW,255,2.0,7.0,100,0.01,,,2.16,150.000000,,2013-10-07 21:12:00,
2013-10-07 17:43:00,72.0,72.0,29.46,West,268,1.0,5.0,100,0.00,,,2.16,135.000000,,2013-10-07 21:43:00,
2013-10-07 17:55:00,72.0,72.0,29.46,West,268,1.0,5.0,100,0.00,,,2.16,135.000000,,2013-10-07 21:55:00,
2013-10-07 18:04:00,72.0,72.0,29.46,West,268,1.0,5.0,100,0.00,,,2.16,135.000000,,2013-10-07 22:04:00,
2013-10-07 18:13:00,72.0,72.0,29.46,West,268,1.0,5.0,100,0.00,,,2.16,135.000000,,2013-10-07 22:13:00,
2013-10-07 18:43:00,71.0,71.0,29.48,East,100,2.0,5.0,100,0.00,,,2.16,38.000000,,2013-10-07 22:43:00,
2013-10-07 18:53:00,71.0,71.0,29.48,East,100,2.0,5.0,100,0.00,,,2.16,38.000000,,2013-10-07 22:53:00,
2013-10-07 19:03:00,71.0,71.0,29.48,East,100,2.0,5.0,100,0.00,,,2.16,38.000000,,2013-10-07 23:03:00,
2013-10-07 19:12:00,71.0,71.0,29.48,East,100,2.0,5.0,100,0.00,,,2.16,38.000000,,2013-10-07 23:12:00,
2013-10-07 19:42:00,70.0,70.0,29.49,NNE,21,6.0,14.0,100,0.00,,,2.16,3.000000,,2013-10-07 23:42:00,
2013-10-07 19:52:00,70.0,70.0,29.49,NNE,21,6.0,14.0,100,0.00,,,2.16,3.000000,,2013-10-07 23:52:00,
2013-10-07 20:03:00,70.0,70.0,29.49,NNE,21,6.0,14.0,100,0.00,,,2.16,3.000000,,2013-10-08 00:03:00,
2013-10-07 20:12:00,70.0,70.0,29.49,NNE,21,6.0,14.0,100,0.00,,,2.16,3.000000,,2013-10-08 00:12:00,
2013-10-07 20:42:00,68.0,68.0,29.52,North,6,4.0,12.0,100,0.00,,,2.16,0.000000,,2013-10-08 00:42:00,
2013-10-07 20:52:00,68.0,68.0,29.52,North,6,4.0,12.0,100,0.00,,,2.16,0.000000,,2013-10-08 00:52:00,
2013-10-07 21:02:00,68.0,68.0,29.52,North,6,4.0,12.0,100,0.00,,,2.16,0.000000,,2013-10-08 01:02:00,
2013-10-07 21:12:00,68.0,68.0,29.52,North,6,4.0,12.0,100,0.00,,,2.16,0.000000,,2013-10-08 01:12:00,
2013-10-07 21:42:00,65.0,64.0,29.55,NNE,20,3.0,11.0,97,0.00,,,2.16,0.000000,,2013-10-08 01:42:00,
2013-10-07 21:52:00,65.0,64.0,29.55,NNE,20,3.0,11.0,97,0.00,,,2.16,0.000000,,2013-10-08 01:52:00,
2013-10-07 22:03:00,65.0,64.0,29.55,NNE,20,3.0,11.0,97,0.00,,,2.16,0.000000,,2013-10-08 02:03:00,
2013-10-07 22:11:00,65.0,64.0,29.55,NNE,20,3.0,11.0,97,0.00,,,2.16,0.000000,,2013-10-08 02:11:00,
2013-10-07 22:42:00,64.0,64.0,29.57,North,2,2.0,6.0,99,0.00,,,2.16,0.000000,,2013-10-08 02:42:00,
2013-10-07 22:53:00,64.0,64.0,29.57,North,2,2.0,6.0,99,0.00,,,2.16,0.000000,,2013-10-08 02:53:00,
2013-10-07 23:03:00,64.0,64.0,29.57,North,2,2.0,6.0,99,0.00,,,2.16,0.000000,,2013-10-08 03:03:00,
2013-10-07 23:11:00,64.0,64.0,29.57,North,2,2.0,6.0,99,0.00,,,2.16,0.000000,,2013-10-08 03:11:00,
2013-10-07 23:44:00,64.0,61.0,29.58,North,1,4.0,10.0,89,0.00,,,2.16,0.000000,,2013-10-08 03:44:00,
2013-10-07 23:55:00,64.0,61.0,29.58,North,1,4.0,10.0,89,0.00,,,2.16,0.000000,,2013-10-08 03:55:00,